QPF
0.05 0.06 0.09 0.07 0.03 0.01 0.02 0.02 0.03 0.04 0.04 0.03 0.02 0.02 0.02 0.03 0.03 0.05 0.07 0.08 0.06 0.05 0.03 0.04 0.05 0.05 0.06 0.08 0.08 0.06 0.05 0.05 0.07 0.06 0.05 0.06 0.06 0.05 0.05 0.04 0.03 0.05 0.07
0.05 0.06 0.06 0.04 0.02 0.01 0.01 0.02 0.03 0.03 0.02 0.02 0.02 0.02 0.02 0.02 0.02 0.03 0.04 0.06 0.05 0.04 0.04 0.04 0.04 0.05 0.07 0.08 0.07 0.06 0.05 0.04 0.05 0.05 0.05 0.06 0.08 0.07 0.05 0.05 0.05 0.05 0.06
0.05 0.04 0.04 0.03 0.02 0.02 0.02 0.02 0.02 0.02 0.02 0.02 0.02 0.02 0.03 0.02 0.02 0.03 0.03 0.04 0.04 0.05 0.05 0.05 0.04 0.05 0.06 0.06 0.06 0.08 0.06 0.04 0.04 0.06 0.04 0.04 0.05 0.07 0.07 0.07 0.07 0.06 0.04
0.03 0.02 0.02 0.02 0.01 0.02 0.03 0.02 0.02 0.02 0.02 0.03 0.04 0.04 0.04 0.03 0.03 0.03 0.03 0.03 0.04 0.05 0.06 0.05 0.04 0.04 0.05 0.05 0.04 0.05 0.05 0.05 0.05 0.04 0.03 0.04 0.03 0.06 0.06 0.06 0.07 0.06 0.03
0.02 0.01 0.01 0.02 0.02 0.02 0.02 0.02 0.02 0.03 0.03 0.04 0.05 0.04 0.04 0.04 0.02 0.03 0.04 0.02 0.03 0.05 0.05 0.04 0.04 0.03 0.03 0.03 0.03 0.04 0.04 0.04 0.04 0.02 0.03 0.03 0.03 0.05 0.04 0.04 0.05 0.05 0.04
0.00 0.01 0.01 0.02 0.02 0.01 0.01 0.02 0.01 0.02 0.02 0.01 0.01 0.02 0.03 0.03 0.02 0.04 0.03 0.02 0.03 0.05 0.04 0.03 0.02 0.02 0.02 0.03 0.05 0.06 0.05 0.04 0.02 0.01 0.02 0.02 0.03 0.05 0.05 0.05 0.05 0.04 0.05
0.00 0.00 0.01 0.02 0.02 0.02 0.02 0.01 0.01 0.02 0.01 0.01 0.01 0.01 0.02 0.02 0.03 0.03 0.02 0.02 0.02 0.02 0.02 0.02 0.02 0.03 0.04 0.06 0.08 0.08 0.06 0.03 0.02 0.01 0.01 0.02 0.05 0.06 0.04 0.04 0.06 0.05 0.05
0.00 0.00 0.01 0.02 0.02 0.02 0.02 0.02 0.02 0.02 0.01 0.01 0.01 0.01 0.01 0.02 0.03 0.03 0.02 0.01 0.01 0.01 0.02 0.02 0.02 0.03 0.05 0.08 0.11 0.10 0.06 0.02 0.02 0.02 0.01 0.02 0.07 0.08 0.04 0.04 0.04 0.03 0.04
0.00 0.00 0.00 0.00 0.01 0.01 0.01 0.02 0.02 0.02 0.01 0.01 0.01 0.01 0.01 0.01 0.02 0.01 0.01 0.01 0.01 0.01 0.01 0.01 0.01 0.03 0.03 0.06 0.10 0.10 0.05 0.02 0.01 0.01 0.01 0.02 0.07 0.08 0.06 0.07 0.06 0.04 0.03
0.00 0.00 0.01 0.01 0.00 0.00 0.00 0.01 0.01 0.01 0.01 0.01 0.01 0.01 0.01 0.01 0.01 0.02 0.02 0.01 0.02 0.01 0.02 0.01 0.02 0.03 0.02 0.03 0.04 0.04 0.04 0.02 0.01 0.02 0.02 0.05 0.08 0.07 0.07 0.07 0.07 0.04 0.03
0.00 0.00 0.00 0.00 0.00 0.00 0.00 0.00 0.00 0.01 0.01 0.01 0.01 0.01 0.01 0.00 0.00 0.01 0.01 0.02 0.02 0.02 0.02 0.02 0.03 0.03 0.02 0.02 0.03 0.03 0.02 0.02 0.02 0.02 0.02 0.05 0.06 0.06 0.06 0.06 0.05 0.04 0.04
0.00 0.00 0.01 0.00 0.00 0.01 0.00 0.00 0.00 0.00 0.00 0.01 0.01 0.02 0.01 0.00 0.01 0.00 0.00 0.02 0.04 0.03 0.01 0.02 0.03 0.03 0.02 0.01 0.01 0.01 0.01 0.02 0.02 0.02 0.02 0.05 0.06 0.06 0.04 0.05 0.04 0.05 0.05
0.00 0.00 0.01 0.00 0.00 0.01 0.01 0.01 0.00 0.01 0.01 0.01 0.01 0.01 0.01 0.00 0.00 0.01 0.00 0.01 0.02 0.02 0.01 0.01 0.01 0.01 0.00 0.00 0.00 0.00 0.01 0.01 0.02 0.02 0.02 0.05 0.06 0.07 0.06 0.06 0.06 0.07 0.06
0.00 0.01 0.01 0.01 0.01 0.01 0.01 0.00 0.00 0.00 0.01 0.01 0.01 0.01 0.01 0.01 0.01 0.01 0.01 0.01 0.01 0.01 0.01 0.00 0.00 0.00 0.01 0.01 0.01 0.00 0.01 0.01 0.02 0.01 0.02 0.04 0.05 0.06 0.06 0.07 0.07 0.07 0.05
0.00 0.01 0.01 0.01 0.01 0.01 0.01 0.00 0.01 0.01 0.00 0.01 0.01 0.01 0.01 0.02 0.02 0.01 0.01 0.02 0.01 0.01 0.01 0.01 0.01 0.01 0.02 0.02 0.02 0.01 0.01 0.01 0.02 0.01 0.01 0.02 0.04 0.06 0.05 0.05 0.07 0.08 0.06
0.00 0.00 0.01 0.01 0.01 0.01 0.01 0.01 0.01 0.01 0.00 0.00 0.00 0.01 0.01 0.02 0.01 0.01 0.01 0.01 0.01 0.02 0.02 0.02 0.01 0.01 0.02 0.02 0.02 0.01 0.01 0.02 0.01 0.00 0.00 0.01 0.02 0.04 0.05 0.06 0.06 0.08 0.09
0.00 0.00 0.00 0.01 0.00 0.00 0.01 0.02 0.01 0.00 0.00 0.00 0.00 0.00 0.00 0.01 0.01 0.01 0.02 0.01 0.01 0.01 0.01 0.01 0.02 0.02 0.01 0.01 0.01 0.01 0.01 0.01 0.01 0.00 0.00 0.01 0.01 0.02 0.04 0.06 0.08 0.09 0.13
0.01 0.01 0.00 0.01 0.01 0.01 0.01 0.02 0.02 0.01 0.00 0.00 0.01 0.01 0.01 0.01 0.01 0.01 0.01 0.01 0.01 0.01 0.01 0.01 0.02 0.02 0.02 0.02 0.01 0.00 0.01 0.01 0.01 0.01 0.01 0.01 0.01 0.01 0.02 0.04 0.07 0.11 0.19
0.01 0.01 0.01 0.02 0.01 0.01 0.01 0.01 0.02 0.01 0.01 0.00 0.01 0.01 0.01 0.01 0.01 0.00 0.00 0.01 0.01 0.01 0.02 0.01 0.02 0.02 0.01 0.01 0.00 0.01 0.02 0.02 0.01 0.01 0.01 0.01 0.02 0.02 0.01 0.02 0.04 0.08 0.13
0.01 0.01 0.01 0.01 0.01 0.02 0.02 0.02 0.02 0.01 0.01 0.01 0.01 0.01 0.01 0.01 0.01 0.01 0.00 0.01 0.01 0.01 0.02 0.02 0.01 0.01 0.01 0.02 0.00 0.01 0.02 0.03 0.02 0.03 0.02 0.02 0.02 0.02 0.02 0.01 0.02 0.04 0.08
0.03 0.02 0.01 0.01 0.01 0.01 0.01 0.01 0.01 0.01 0.02 0.02 0.01 0.01 0.01 0.01 0.01 0.01 0.01 0.01 0.01 0.01 0.01 0.01 0.01 0.01 0.01 0.02 0.01 0.01 0.02 0.01 0.02 0.03 0.04 0.03 0.03 0.03 0.03 0.02 0.02 0.03 0.06
0.03 0.02 0.02 0.01 0.01 0.00 0.01 0.01 0.00 0.00 0.01 0.01 0.01 0.01 0.01 0.00 0.00 0.00 0.00 0.00 0.00 0.02 0.03 0.02 0.01 0.01 0.01 0.01 0.01 0.02 0.02 0.02 0.02 0.02 0.01 0.02 0.03 0.05 0.06 0.05 0.03 0.03 0.03
0.03 0.03 0.03 0.01 0.00 0.00 0.00 0.00 0.00 0.00 0.00 0.00 0.00 0.01 0.01 0.00 0.00 0.00 0.00 0.00 0.00 0.01 0.02 0.02 0.01 0.01 0.01 0.01 0.01 0.01 0.02 0.03 0.03 0.03 0.04 0.04 0.05 0.05 0.06 0.07 0.05 0.05 0.03
0.03 0.03 0.03 0.02 0.01 0.00 0.00 0.00 0.00 0.00 0.00 0.00 0.01 0.01 0.01 0.00 0.00 0.01 0.01 0.01 0.01 0.01 0.02 0.03 0.01 0.01 0.01 0.01 0.01 0.01 0.01 0.01 0.02 0.04 0.05 0.05 0.05 0.04 0.04 0.05 0.05 0.04 0.03
0.04 0.03 0.03 0.02 0.02 0.01 0.01 0.01 0.00 0.00 0.01 0.01 0.01 0.01 0.01 0.01 0.01 0.01 0.02 0.02 0.02 0.02 0.02 0.03 0.03 0.02 0.01 0.01 0.01 0.02 0.02 0.01 0.02 0.04 0.05 0.05 0.04 0.05 0.04 0.04 0.05 0.05 0.03
0.04 0.04 0.04 0.03 0.02 0.01 0.02 0.02 0.01 0.01 0.01 0.01 0.01 0.01 0.01 0.00 0.01 0.01 0.01 0.01 0.01 0.02 0.02 0.03 0.04 0.03 0.03 0.02 0.01 0.01 0.01 0.01 0.02 0.03 0.04 0.03 0.03 0.05 0.05 0.04 0.04 0.03 0.03
MSLP
1013.75 1013.21 1012.75 1012.42 1012.24 1012.17 1012.18 1012.21 1012.23 1012.22 1012.18 1012.16 1012.18 1012.27 1012.43 1012.65 1012.91 1013.18 1013.41 1013.59 1013.72 1013.80 1013.86 1013.92 1013.99 1014.06 1014.15 1014.22 1014.28 1014.32 1014.33 1014.32 1014.31 1014.29 1014.28 1014.29 1014.29 1014.29 1014.27 1014.23 1014.17 1014.09 1014.00
1013.61 1013.13 1012.73 1012.44 1012.29 1012.25 1012.28 1012.33 1012.37 1012.38 1012.37 1012.37 1012.41 1012.52 1012.70 1012.95 1013.22 1013.49 1013.73 1013.91 1014.03 1014.10 1014.14 1014.18 1014.23 1014.28 1014.35 1014.41 1014.45 1014.47 1014.48 1014.47 1014.45 1014.45 1014.47 1014.50 1014.53 1014.56 1014.57 1014.55 1014.49 1014.42 1014.33
1013.36 1012.95 1012.61 1012.38 1012.28 1012.29 1012.37 1012.46 1012.53 1012.57 1012.59 1012.61 1012.67 1012.79 1012.97 1013.20 1013.47 1013.72 1013.94 1014.10 1014.20 1014.26 1014.30 1014.32 1014.36 1014.41 1014.47 1014.52 1014.56 1014.58 1014.58 1014.58 1014.59 1014.61 1014.66 1014.73 1014.80 1014.86 1014.89 1014.89 1014.85 1014.78 1014.69
1013.05 1012.71 1012.44 1012.28 1012.25 1012.33 1012.46 1012.60 1012.71 1012.78 1012.82 1012.86 1012.92 1013.02 1013.18 1013.39 1013.61 1013.83 1014.01 1014.15 1014.24 1014.29 1014.33 1014.37 1014.42 1014.48 1014.55 1014.61 1014.65 1014.68 1014.69 1014.70 1014.73 1014.78 1014.86 1014.96 1015.06 1015.16 1015.22 1015.23 1015.21 1015.15 1015.06
1012.76 1012.49 1012.29 1012.21 1012.26 1012.40 1012.58 1012.76 1012.90 1012.99 1013.04 1013.07 1013.12 1013.20 1013.33 1013.49 1013.67 1013.84 1013.98 1014.10 1014.18 1014.24 1014.30 1014.37 1014.45 1014.54 1014.64 1014.72 1014.77 1014.81 1014.83 1014.86 1014.90 1014.97 1015.07 1015.20 1015.32 1015.43 1015.51 1015.54 1015.52 1015.47 1015.40
1012.57 1012.36 1012.23 1012.23 1012.34 1012.53 1012.74 1012.94 1013.08 1013.17 1013.21 1013.23 1013.26 1013.32 1013.41 1013.53 1013.67 1013.80 1013.91 1014.00 1014.09 1014.17 1014.26 1014.38 1014.51 1014.65 1014.79 1014.89 1014.97 1015.01 1015.04 1015.07 1015.11 1015.19 1015.29 1015.42 1015.55 1015.67 1015.74 1015.77 1015.76 1015.72 1015.66
1012.51 1012.36 1012.31 1012.37 1012.53 1012.74 1012.96 1013.14 1013.26 1013.32 1013.35 1013.35 1013.37 1013.41 1013.48 1013.57 1013.68 1013.78 1013.87 1013.95 1014.04 1014.15 1014.29 1014.46 1014.65 1014.85 1015.02 1015.16 1015.25 1015.30 1015.33 1015.34 1015.37 1015.43 1015.52 1015.64 1015.75 1015.85 1015.92 1015.94 1015.93 1015.89 1015.85
1012.59 1012.50 1012.52 1012.63 1012.82 1013.02 1013.21 1013.35 1013.43 1013.46 1013.46 1013.45 1013.46 1013.51 1013.58 1013.67 1013.76 1013.84 1013.91 1013.99 1014.09 1014.22 1014.40 1014.62 1014.86 1015.11 1015.34 1015.51 1015.61 1015.66 1015.67 1015.67 1015.67 1015.70 1015.76 1015.84 1015.92 1016.00 1016.04 1016.05 1016.03 1016.00 1015.97
1012.76 1012.75 1012.82 1012.98 1013.17 1013.35 1013.49 1013.57 1013.59 1013.58 1013.55 1013.55 1013.58 1013.65 1013.75 1013.85 1013.94 1014.02 1014.08 1014.15 1014.24 1014.38 1014.58 1014.84 1015.13 1015.43 1015.68 1015.88 1016.00 1016.04 1016.04 1016.00 1015.97 1015.96 1015.98 1016.03 1016.08 1016.12 1016.14 1016.13 1016.11 1016.08 1016.07
1012.95 1013.02 1013.16 1013.35 1013.53 1013.67 1013.75 1013.76 1013.73 1013.68 1013.65 1013.66 1013.74 1013.85 1013.99 1014.13 1014.24 1014.31 1014.35 1014.40 1014.47 1014.61 1014.81 1015.09 1015.40 1015.73 1016.01 1016.23 1016.36 1016.40 1016.38 1016.32 1016.26 1016.22 1016.20 1016.21 1016.24 1016.25 1016.26 1016.24 1016.21 1016.19 1016.19
1013.09 1013.25 1013.45 1013.66 1013.84 1013.94 1013.96 1013.91 1013.83 1013.76 1013.73 1013.79 1013.91 1014.09 1014.29 1014.46 1014.59 1014.66 1014.68 1014.70 1014.74 1014.85 1015.04 1015.31 1015.64 1015.97 1016.28 1016.51 1016.65 1016.70 1016.68 1016.60 1016.52 1016.45 1016.42 1016.41 1016.41 1016.42 1016.42 1016.40 1016.38 1016.36 1016.37
1013.13 1013.37 1013.63 1013.86 1014.03 1014.10 1014.07 1013.98 1013.87 1013.79 1013.79 1013.89 1014.08 1014.33 1014.58 1014.79 1014.94 1015.00 1015.01 1014.99 1015.00 1015.07 1015.24 1015.49 1015.81 1016.15 1016.47 1016.72 1016.87 1016.93 1016.91 1016.84 1016.75 1016.68 1016.63 1016.62 1016.63 1016.64 1016.65 1016.64 1016.63 1016.63 1016.64
1013.04 1013.34 1013.65 1013.91 1014.07 1014.12 1014.06 1013.95 1013.83 1013.77 1013.81 1013.96 1014.21 1014.51 1014.81 1015.06 1015.22 1015.28 1015.27 1015.23 1015.21 1015.25 1015.39 1015.63 1015.94 1016.28 1016.60 1016.87 1017.04 1017.11 1017.11 1017.05 1016.97 1016.91 1016.87 1016.86 1016.88 1016.91 1016.94 1016.96 1016.97 1016.98 1017.00
1012.81 1013.16 1013.50 1013.77 1013.94 1013.98 1013.92 1013.82 1013.72 1013.68 1013.76 1013.96 1014.25 1014.59 1014.92 1015.20 1015.38 1015.45 1015.44 1015.40 1015.37 1015.40 1015.53 1015.76 1016.06 1016.40 1016.73 1017.00 1017.19 1017.29 1017.31 1017.27 1017.21 1017.16 1017.13 1017.14 1017.17 1017.22 1017.28 1017.32 1017.36 1017.40 1017.44
1012.47 1012.84 1013.19 1013.47 1013.64 1013.70 1013.67 1013.60 1013.53 1013.54 1013.65 1013.88 1014.20 1014.56 1014.91 1015.20 1015.39 1015.49 1015.51 1015.49 1015.49 1015.54 1015.69 1015.92 1016.23 1016.57 1016.91 1017.19 1017.39 1017.50 1017.54 1017.53 1017.49 1017.45 1017.44 1017.45 1017.50 1017.57 1017.64 1017.71 1017.78 1017.84 1017.89
1012.03 1012.39 1012.74 1013.03 1013.22 1013.32 1013.34 1013.32 1013.31 1013.36 1013.51 1013.75 1014.06 1014.42 1014.76 1015.05 1015.27 1015.41 1015.48 1015.52 1015.58 1015.70 1015.89 1016.15 1016.48 1016.83 1017.16 1017.45 1017.66 1017.79 1017.85 1017.85 1017.83 1017.80 1017.79 1017.81 1017.86 1017.92 1018.00 1018.09 1018.17 1018.25 1018.32
1011.53 1011.86 1012.20 1012.49 1012.72 1012.87 1012.96 1013.02 1013.08 1013.19 1013.35 1013.59 1013.88 1014.21 1014.53 1014.82 1015.05 1015.24 1015.39 1015.52 1015.68 1015.88 1016.13 1016.44 1016.80 1017.16 1017.49 1017.78 1018.00 1018.14 1018.21 1018.24 1018.23 1018.21 1018.19 1018.20 1018.22 1018.27 1018.34 1018.42 1018.51 1018.60 1018.69
1010.97 1011.27 1011.59 1011.89 1012.17 1012.40 1012.58 1012.74 1012.88 1013.05 1013.23 1013.46 1013.71 1013.99 1014.27 1014.53 1014.79 1015.03 1015.26 1015.50 1015.76 1016.06 1016.40 1016.77 1017.15 1017.52 1017.85 1018.14 1018.36 1018.52 1018.61 1018.65 1018.65 1018.64 1018.62 1018.60 1018.60 1018.61 1018.64 1018.70 1018.78 1018.87 1018.98
1010.36 1010.63 1010.94 1011.27 1011.60 1011.92 1012.22 1012.49 1012.74 1012.96 1013.17 1013.38 1013.58 1013.80 1014.02 1014.26 1014.52 1014.80 1015.11 1015.45 1015.83 1016.22 1016.64 1017.05 1017.46 1017.84 1018.17 1018.46 1018.69 1018.86 1018.97 1019.04 1019.07 1019.07 1019.04 1019.00 1018.95 1018.92 1018.91 1018.92 1018.97 1019.05 1019.16
1009.69 1009.94 1010.25 1010.62 1011.03 1011.46 1011.88 1012.28 1012.63 1012.92 1013.16 1013.35 1013.51 1013.67 1013.83 1014.03 1014.28 1014.60 1014.96 1015.39 1015.84 1016.32 1016.79 1017.24 1017.67 1018.05 1018.38 1018.66 1018.90 1019.10 1019.25 1019.36 1019.43 1019.44 1019.42 1019.36 1019.28 1019.20 1019.13 1019.09 1019.10 1019.16 1019.25
1008.96 1009.21 1009.54 1009.96 1010.45 1010.98 1011.53 1012.05 1012.51 1012.88 1013.16 1013.36 1013.49 1013.59 1013.70 1013.86 1014.09 1014.41 1014.81 1015.28 1015.79 1016.31 1016.82 1017.29 1017.71 1018.09 1018.41 1018.71 1018.97 1019.20 1019.40 1019.57 1019.68 1019.73 1019.73 1019.66 1019.55 1019.43 1019.30 1019.21 1019.17 1019.19 1019.26
1008.18 1008.44 1008.80 1009.26 1009.82 1010.45 1011.11 1011.75 1012.32 1012.78 1013.12 1013.33 1013.45 1013.53 1013.60 1013.72 1013.93 1014.24 1014.64 1015.13 1015.66 1016.19 1016.71 1017.17 1017.59 1017.95 1018.28 1018.58 1018.86 1019.14 1019.40 1019.63 1019.80 1019.91 1019.93 1019.88 1019.76 1019.60 1019.43 1019.29 1019.20 1019.17 1019.20
1007.36 1007.64 1008.01 1008.51 1009.12 1009.82 1010.57 1011.31 1011.98 1012.53 1012.94 1013.20 1013.35 1013.42 1013.48 1013.59 1013.78 1014.07 1014.46 1014.94 1015.46 1015.98 1016.48 1016.93 1017.32 1017.67 1017.99 1018.31 1018.62 1018.94 1019.26 1019.55 1019.79 1019.95 1020.02 1019.99 1019.87 1019.70 1019.50 1019.32 1019.18 1019.10 1019.10
1006.52 1006.81 1007.18 1007.68 1008.31 1009.04 1009.84 1010.66 1011.41 1012.06 1012.55 1012.88 1013.08 1013.20 1013.29 1013.40 1013.59 1013.87 1014.25 1014.71 1015.21 1015.71 1016.18 1016.60 1016.98 1017.32 1017.64 1017.96 1018.30 1018.66 1019.03 1019.37 1019.67 1019.88 1019.99 1019.99 1019.89 1019.72 1019.51 1019.30 1019.12 1019.01 1018.96
1005.70 1005.97 1006.32 1006.78 1007.38 1008.11 1008.92 1009.77 1010.59 1011.31 1011.89 1012.32 1012.61 1012.81 1012.96 1013.12 1013.33 1013.63 1014.01 1014.45 1014.92 1015.40 1015.85 1016.26 1016.62 1016.95 1017.27 1017.61 1017.96 1018.35 1018.74 1019.12 1019.45 1019.70 1019.85 1019.88 1019.81 1019.65 1019.45 1019.24 1019.05 1018.90 1018.81
1004.94 1005.16 1005.44 1005.83 1006.36 1007.04 1007.82 1008.66 1009.51 1010.29 1010.96 1011.49 1011.90 1012.20 1012.45 1012.69 1012.97 1013.30 1013.70 1014.15 1014.62 1015.09 1015.53 1015.93 1016.29 1016.63 1016.96 1017.29 1017.66 1018.05 1018.45 1018.84 1019.18 1019.45 1019.62 1019.69 1019.65 1019.53 1019.35 1019.16 1018.96 1018.80 1018.68
Thickness
5749 5753 5755 5757 5759 5760 5761 5763 5764 5765 5766 5766 5767 5767 5768 5768 5769 5769 5770 5770 5770 5770 5770 5771 5771 5771 5771 5771 5771 5771 5771 5771 5771 5771 5772 5772 5772 5772 5772 5771 5771 5771 5771
5751 5753 5754 5755 5757 5758 5759 5760 5761 5762 5763 5763 5764 5765 5765 5765 5766 5766 5766 5767 5767 5767 5767 5768 5768 5768 5768 5768 5768 5769 5769 5769 5769 5769 5769 5769 5769 5769 5769 5769 5769 5769 5768
5751 5752 5753 5754 5755 5756 5757 5758 5759 5759 5760 5761 5761 5762 5762 5763 5763 5763 5764 5764 5764 5764 5765 5765 5765 5765 5765 5766 5766 5766 5766 5766 5767 5767 5766 5766 5766 5767 5767 5767 5767 5766 5766
5751 5750 5751 5752 5753 5754 5754 5755 5756 5756 5757 5757 5758 5758 5759 5759 5760 5760 5761 5761 5761 5761 5761 5762 5762 5762 5762 5763 5763 5763 5763 5764 5764 5764 5764 5764 5764 5764 5764 5764 5764 5764 5763
5749 5749 5749 5750 5750 5751 5752 5752 5753 5753 5754 5754 5755 5755 5755 5756 5756 5757 5757 5758 5758 5758 5758 5759 5759 5760 5760 5760 5760 5760 5760 5760 5760 5760 5760 5760 5761 5761 5761 5761 5761 5761 5761
5746 5746 5747 5747 5748 5748 5749 5750 5750 5750 5751 5751 5751 5752 5752 5752 5752 5753 5754 5754 5755 5755 5755 5756 5756 5757 5757 5757 5757 5757 5757 5757 5757 5757 5757 5757 5757 5758 5758 5758 5758 5758 5758
5744 5744 5744 5744 5745 5746 5746 5747 5747 5747 5748 5748 5748 5748 5748 5749 5749 5749 5750 5751 5751 5751 5752 5753 5753 5753 5754 5756 5755 5754 5754 5753 5753 5753 5753 5753 5754 5754 5755 5755 5755 5755 5755
5742 5741 5741 5741 5742 5742 5743 5743 5744 5744 5744 5744 5745 5745 5745 5745 5745 5746 5746 5747 5747 5748 5748 5749 5749 5750 5751 5753 5752 5750 5750 5750 5749 5749 5750 5750 5751 5751 5751 5751 5751 5751 5751
5740 5739 5738 5739 5739 5739 5740 5740 5740 5741 5741 5741 5741 5741 5741 5741 5741 5742 5742 5743 5743 5743 5744 5745 5745 5746 5746 5747 5747 5747 5746 5746 5745 5745 5746 5746 5747 5748 5747 5747 5748 5748 5747
5737 5736 5736 5736 5736 5736 5736 5737 5737 5737 5737 5737 5737 5737 5737 5737 5738 5738 5738 5738 5739 5739 5740 5740 5741 5741 5742 5742 5742 5742 5741 5741 5741 5741 5742 5743 5743 5744 5743 5743 5743 5744 5744
5733 5733 5733 5733 5733 5733 5734 5734 5734 5734 5734 5733 5733 5733 5733 5733 5734 5734 5734 5735 5735 5735 5736 5736 5736 5737 5737 5737 5737 5737 5737 5736 5736 5737 5737 5738 5739 5739 5739 5740 5740 5740 5740
5729 5730 5731 5731 5731 5731 5731 5731 5730 5730 5730 5730 5730 5730 5729 5729 5729 5730 5730 5730 5730 5731 5731 5731 5731 5731 5732 5732 5732 5732 5732 5731 5731 5731 5732 5734 5735 5735 5735 5736 5736 5736 5736
5729 5730 5730 5730 5729 5729 5728 5728 5727 5727 5727 5727 5726 5726 5726 5725 5725 5725 5725 5725 5725 5726 5726 5725 5726 5725 5726 5726 5726 5726 5726 5726 5726 5726 5727 5729 5730 5730 5731 5732 5732 5732 5732
5728 5729 5729 5729 5728 5727 5726 5725 5724 5724 5723 5723 5723 5723 5722 5721 5721 5721 5720 5720 5720 5720 5720 5720 5720 5720 5720 5720 5720 5720 5720 5720 5720 5721 5722 5723 5724 5725 5726 5727 5727 5727 5727
5728 5728 5728 5727 5726 5725 5723 5722 5722 5721 5720 5720 5720 5719 5718 5717 5716 5716 5715 5715 5715 5715 5715 5714 5714 5714 5714 5714 5714 5714 5714 5714 5714 5714 5715 5717 5718 5720 5721 5721 5722 5722 5722
5727 5727 5727 5726 5724 5723 5721 5720 5719 5718 5717 5717 5716 5715 5714 5714 5713 5711 5710 5710 5710 5710 5709 5709 5708 5708 5708 5708 5708 5708 5708 5708 5708 5708 5709 5710 5711 5713 5714 5715 5716 5716 5716
5726 5726 5725 5724 5722 5720 5718 5717 5716 5715 5714 5713 5712 5711 5710 5710 5708 5707 5706 5705 5705 5705 5704 5704 5703 5702 5702 5702 5701 5701 5701 5701 5701 5702 5703 5703 5704 5706 5707 5708 5710 5711 5711
5726 5724 5723 5723 5719 5717 5715 5713 5712 5711 5710 5708 5708 5707 5706 5706 5704 5703 5701 5700 5700 5700 5699 5698 5696 5695 5694 5694 5694 5694 5695 5695 5695 5696 5696 5696 5697 5698 5700 5701 5703 5705 5704
5725 5722 5720 5719 5716 5714 5712 5710 5708 5706 5705 5704 5704 5703 5702 5701 5700 5699 5697 5696 5695 5694 5693 5692 5690 5688 5687 5686 5687 5687 5688 5688 5688 5689 5689 5690 5690 5691 5692 5694 5695 5697 5697
5724 5721 5718 5716 5713 5711 5708 5705 5703 5701 5700 5700 5699 5698 5698 5697 5696 5695 5693 5692 5691 5689 5687 5686 5684 5683 5681 5681 5682 5680 5680 5681 5681 5682 5682 5683 5683 5684 5685 5686 5688 5689 5690
5720 5717 5715 5712 5709 5707 5704 5700 5697 5695 5695 5694 5694 5694 5694 5693 5691 5690 5688 5687 5685 5683 5681 5680 5679 5676 5674 5674 5673 5670 5672 5674 5674 5675 5675 5676 5676 5677 5678 5679 5680 5681 5682
5716 5714 5712 5710 5707 5705 5703 5700 5697 5694 5691 5691 5690 5690 5689 5688 5687 5686 5684 5682 5680 5678 5676 5675 5673 5670 5668 5668 5665 5662 5659 5661 5665 5667 5668 5669 5669 5670 5670 5671 5672 5674 5674
5714 5712 5711 5708 5706 5703 5701 5697 5693 5689 5687 5685 5685 5685 5685 5684 5683 5682 5680 5678 5676 5674 5671 5670 5668 5666 5662 5661 5662 5658 5653 5650 5652 5657 5660 5661 5662 5662 5663 5664 5665 5667 5667
5713 5712 5709 5706 5704 5701 5699 5695 5690 5686 5682 5682 5681 5681 5681 5681 5679 5678 5676 5674 5672 5669 5667 5665 5664 5662 5659 5656 5656 5655 5654 5651 5647 5647 5650 5653 5654 5655 5656 5658 5659 5659 5660
5712 5709 5707 5704 5701 5699 5697 5693 5689 5685 5682 5681 5679 5678 5677 5676 5676 5674 5672 5670 5668 5665 5663 5661 5659 5658 5655 5653 5651 5650 5648 5646 5645 5642 5641 5643 5646 5648 5650 5651 5652 5652 5653
5708 5705 5703 5700 5697 5696 5693 5691 5688 5684 5681 5678 5676 5674 5672 5671 5671 5670 5669 5666 5664 5662 5660 5658 5656 5654 5652 5649 5647 5646 5644 5641 5639 5638 5635 5635 5636 5640 5643 5644 5645 5646 5646